GAOFEN-11 01

Last updated on Sat Dec 13 2025 00:02:31 GMT+0000 (Coordinated Universal Time)

1 43585U 18063A 25346.30165069 .00029958 00000+0 54981-3 0 9995 2 43585 97.1561 49.2392 0004246 315.2823 44.8086 15.49209977411352
UTC large
Height (km)
Speed (km/s)
/
Latitude / Longitude
Inclination (degrees)
Orbital Period (minutes)
Azimuth
Elevation
Range (km)
Doppler Factor

Next 0 passes for location: London (51.5072 / 0.1276)

Sorry there are no passes over London.